Weather History for Quillayute, WA

Change the Weather History Date:

Sunday, September 29, 2013

  Actual Average Record
Temperature  
Mean Temperature 56 °F 54 °F  
Max Temperature 59 °F 63 °F 83 °F (2008)
Min Temperature 53 °F 44 °F 31 °F (1983)
Degree Days  
Heating Degree Days 9 11  
Month to date heating degree days 109 245  
Since 1 July heating degree days 281 614  
Cooling Degree Days 0 0  
Month to date cooling degree days 14 0  
Year to date cooling degree days 39 17  
Growing Degree Days 6 (Base 50)    
Moisture  
Dew Point 51 °F    
Average Humidity 75    
Maximum Humidity 89    
Minimum Humidity 61    
Precipitation  
Precipitation 1.77 in 0.18 in 3.48 in (2005)
Month to date precipitation 9.16 3.64  
Year to date precipitation 70.98 60.36  
Sea Level Pressure  
Sea Level Pressure 29.33 in    
Wind  
Wind Speed 12 mph (South)    
Max Wind Speed 32 mph    
Max Gust Speed 46 mph    
Visibility 3 miles    
Events Rain , Thunderstorm    
T = Trace of Precipitation, MM = Missing Value Source: NWS Daily Summary

Daily Weather History Graph

Daily Weather History Graph

Search for Another Location

Airport:

Trip Planner

Search our weather history database for the weather conditions in past years. The results will help you decide how hot, cold, wet, or windy it might be!

Date:

Astronomy

Sep. 29, 2013 Rise Set
Actual Time 7:15 AM PDT 7:00 PM PDT
Civil Twilight 6:44 AM PDT 7:31 PM PDT
Nautical Twilight 6:08 AM PDT 8:07 PM PDT
Astronomical Twilight 5:31 AM PDT 8:44 PM PDT
Moon 1:41 AM PDT (9/29) 4:17 PM PDT (9/29)
Length of Visible Light 12h 47m
Length of Day
11h 45m
Waning Crescent, 26% of the Moon is Illuminated
Sep 29
Waning Crescent
Oct 4
New
Oct 11
First Quarter
Oct 18
Full
Oct 26
Last Quarter

Hourly Weather History & Observations

Time (PDT) Temp. Dew Point Humidity Pressure Visibility Wind Dir Wind Speed Gust Speed Precip Events Conditions
12:53 AM 57.0 °F 51.1 °F 81% 29.41 in 6.0 mi SSW 6.9 mph - 0.02 in Rain Light Rain
1:53 AM 57.0 °F 50.0 °F 77% 29.41 in 8.0 mi SW 11.5 mph - 0.00 in   Mostly Cloudy
2:53 AM 57.0 °F 48.9 °F 74% 29.44 in 5.0 mi SW 23.0 mph 34.5 mph 0.00 in Rain Light Rain
3:53 AM 55.9 °F 51.1 °F 84% 29.42 in 7.0 mi SW 9.2 mph - 0.05 in   Overcast
4:02 AM 57.2 °F 51.8 °F 82% 29.42 in 7.0 mi SSW 8.1 mph 19.6 mph N/A   Mostly Cloudy
4:19 AM 53.6 °F 48.2 °F 82% 29.43 in 1.8 mi WSW 11.5 mph 26.5 mph 0.08 in Rain Heavy Rain
4:23 AM 53.6 °F 48.2 °F 82% 29.44 in 1.2 mi WSW 15.0 mph 26.5 mph 0.11 in Rain Heavy Rain
4:30 AM 53.6 °F 48.2 °F 82% 29.44 in 2.0 mi SW 10.4 mph 26.5 mph 0.16 in Rain Light Rain
4:39 AM 53.6 °F 48.2 °F 82% 29.43 in 5.0 mi SSW 8.1 mph - 0.17 in Rain Light Rain
4:53 AM 54.0 °F 50.0 °F 86% 29.43 in 7.0 mi WSW 6.9 mph - 0.18 in Rain Light Rain
5:42 AM 53.6 °F 50.0 °F 88% 29.43 in 7.0 mi South 8.1 mph - 0.03 in Thunderstorm Overcast
5:53 AM 54.0 °F 50.0 °F 86% 29.42 in 7.0 mi SSW 4.6 mph - 0.03 in   Mostly Cloudy
6:10 AM 55.4 °F 51.8 °F 88% 29.43 in 4.0 mi SW 8.1 mph - 0.01 in Rain Light Rain
6:40 AM 55.4 °F 48.2 °F 77% 29.43 in 6.0 mi SSW 8.1 mph 17.3 mph 0.02 in Rain Light Rain
6:53 AM 55.0 °F 50.0 °F 83% 29.43 in 3.0 mi SW 12.7 mph 28.8 mph 0.05 in Rain Rain
7:46 AM 55.4 °F 51.8 °F 88% 29.44 in 2.0 mi SW 18.4 mph 24.2 mph 0.05 in Rain Heavy Rain
7:51 AM 55.4 °F 48.2 °F 77% 29.44 in 2.5 mi WSW 12.7 mph 24.2 mph 0.08 in Rain , Thunderstorm Rain
7:53 AM 55.0 °F 48.0 °F 77% 29.44 in 2.5 mi SW 10.4 mph 24.2 mph 0.08 in Rain , Thunderstorm Light Rain
8:00 AM 53.6 °F 48.2 °F 82% 29.43 in 7.0 mi SW 6.9 mph - 0.00 in Rain , Thunderstorm Light Rain
8:14 AM 53.6 °F 48.2 °F 82% 29.44 in 5.0 mi Variable 4.6 mph - 0.00 in Rain Light Rain
8:53 AM 55.0 °F 50.0 °F 83% 29.45 in 3.0 mi South 6.9 mph - 0.02 in Rain Light Rain
9:53 AM 55.0 °F 50.0 °F 83% 29.44 in 5.0 mi South 6.9 mph - 0.01 in Rain Light Rain
10:04 AM 55.4 °F 51.8 °F 88% 29.44 in 2.0 mi Variable 3.5 mph - 0.03 in Rain Rain
10:13 AM 55.4 °F 51.8 °F 88% 29.45 in 1.5 mi WSW 5.8 mph - 0.04 in Rain Rain
10:15 AM 55.4 °F 51.8 °F 88% 29.45 in 1.0 mi WSW 6.9 mph - 0.05 in Rain Heavy Rain
10:19 AM 55.4 °F 51.8 °F 88% 29.45 in 0.8 mi SSW 4.6 mph - 0.09 in Rain Heavy Rain
10:23 AM 55.4 °F 51.8 °F 88% 29.44 in 1.0 mi SSW 5.8 mph - 0.10 in Rain Heavy Rain
10:31 AM 55.4 °F 51.8 °F 88% 29.44 in 2.0 mi South 5.8 mph - 0.13 in Rain Rain
10:41 AM 55.4 °F 51.8 °F 88% 29.45 in 5.0 mi Variable 4.6 mph - 0.14 in Rain Light Rain
10:53 AM 55.0 °F 50.0 °F 83% 29.45 in 5.0 mi Variable 4.6 mph - 0.14 in Rain Light Rain
11:13 AM 53.6 °F 51.8 °F 94% 29.45 in 2.0 mi Calm Calm - 0.03 in Rain Rain
11:21 AM 53.6 °F 51.8 °F 94% 29.44 in 1.8 mi SSE 4.6 mph - 0.05 in Rain Rain
11:26 AM 53.6 °F 51.8 °F 94% 29.44 in 3.0 mi South 5.8 mph - 0.06 in Rain Light Rain
11:53 AM 54.0 °F 50.0 °F 86% 29.43 in 1.0 mi Variable 4.6 mph - 0.09 in Rain Light Rain
12:00 PM 53.6 °F 48.2 °F 82% 29.43 in 0.5 mi Variable 5.8 mph 23.0 mph 0.17 in Rain Heavy Rain
12:05 PM 53.6 °F 50.0 °F 88% 29.42 in 1.2 mi ESE 6.9 mph 23.0 mph 0.19 in Rain , Thunderstorm Light Thunderstorms and Rain
12:07 PM 53.6 °F 50.0 °F 88% 29.42 in 2.5 mi ESE 8.1 mph - 0.19 in Rain , Thunderstorm Light Thunderstorms and Rain
12:14 PM 55.4 °F 50.0 °F 82% 29.42 in 5.0 mi ESE 6.9 mph - 0.19 in Rain , Thunderstorm Light Thunderstorms and Rain
12:31 PM 55.4 °F 51.8 °F 88% 29.42 in 5.0 mi South 10.4 mph 19.6 mph 0.19 in Rain Light Rain
12:49 PM 55.4 °F 51.8 °F 88% 29.41 in 2.0 mi South 9.2 mph 23.0 mph 0.21 in Rain Rain
12:53 PM 55.9 °F 52.0 °F 87% 29.41 in 1.8 mi South 9.2 mph 23.0 mph 0.22 in Rain Rain
12:57 PM 55.4 °F 51.8 °F 88% 29.41 in 2.0 mi South 10.4 mph 19.6 mph 0.01 in Rain Light Rain
1:13 PM 55.4 °F 51.8 °F 88% 29.40 in 2.0 mi Variable 6.9 mph 18.4 mph 0.03 in Rain Light Rain
1:23 PM 55.4 °F 51.8 °F 88% 29.39 in 1.8 mi SSE 8.1 mph - 0.04 in Rain Rain
1:25 PM 55.4 °F 51.8 °F 88% 29.39 in 1.8 mi SSE 12.7 mph 24.2 mph 0.05 in Rain Rain
1:33 PM 55.4 °F 51.8 °F 88% 29.39 in 2.0 mi South 10.4 mph 29.9 mph 0.06 in Rain Light Rain
1:43 PM 55.4 °F 51.8 °F 88% 29.39 in 2.5 mi South 8.1 mph 19.6 mph 0.07 in Rain Light Rain
1:53 PM 55.9 °F 52.0 °F 87% 29.39 in 2.5 mi South 9.2 mph 19.6 mph 0.08 in Rain Light Rain
2:12 PM 55.4 °F 51.8 °F 88% 29.36 in 3.0 mi South 6.9 mph 17.3 mph 0.01 in Rain Light Rain
2:18 PM 55.4 °F 51.8 °F 88% 29.37 in 3.0 mi South 9.2 mph 18.4 mph 0.02 in Rain Light Rain
2:28 PM 55.4 °F 51.8 °F 88% 29.36 in 2.5 mi SSE 6.9 mph - 0.02 in Rain Light Rain
2:34 PM 55.4 °F 51.8 °F 88% 29.35 in 1.5 mi SSE 11.5 mph 19.6 mph 0.04 in Rain Rain
2:53 PM 55.9 °F 51.1 °F 84% 29.33 in 1.8 mi SSE 10.4 mph 20.7 mph 0.08 in Rain Light Rain
3:01 PM 55.4 °F 51.8 °F 88% 29.32 in 1.2 mi South 4.6 mph 24.2 mph 0.03 in Rain Light Rain
3:06 PM 55.4 °F 51.8 °F 88% 29.31 in 2.0 mi SSE 13.8 mph 21.9 mph 0.03 in Rain Light Rain
3:18 PM 55.4 °F 51.8 °F 88% 29.30 in 6.0 mi SSE 9.2 mph 21.9 mph 0.03 in Rain Light Rain
3:30 PM 55.4 °F 51.8 °F 88% 29.28 in 1.5 mi SSE 12.7 mph 25.3 mph 0.04 in Rain Rain
3:37 PM 55.4 °F 51.8 °F 88% 29.27 in 0.8 mi SSE 9.2 mph 31.1 mph 0.08 in Rain Rain
3:44 PM 55.4 °F 51.8 °F 88% 29.26 in 1.5 mi SSE 11.5 mph 24.2 mph 0.09 in Rain Light Rain
3:48 PM 55.4 °F 51.8 °F 88% 29.25 in 3.0 mi SE 15.0 mph 21.9 mph 0.09 in Rain Light Rain
3:53 PM 55.9 °F 52.0 °F 87% 29.25 in 2.0 mi SE 13.8 mph 24.2 mph 0.09 in Rain Light Rain
4:06 PM 57.2 °F 51.8 °F 82% 29.22 in 4.0 mi SSE 13.8 mph 32.2 mph 0.02 in Rain Light Rain
4:19 PM 57.2 °F 53.6 °F 88% 29.20 in 2.5 mi SSE 9.2 mph 26.5 mph 0.03 in Rain Light Rain
4:23 PM 57.2 °F 53.6 °F 88% 29.20 in 1.8 mi SSE 12.7 mph 23.0 mph 0.04 in Rain Rain
4:36 PM 57.2 °F 53.6 °F 88% 29.17 in 3.0 mi SSE 9.2 mph 28.8 mph 0.06 in Rain Light Rain
4:41 PM 57.2 °F 53.6 °F 88% 29.16 in 1.8 mi SSE 15.0 mph 36.8 mph 0.07 in Rain Rain
4:47 PM 57.2 °F 53.6 °F 88% 29.14 in 0.8 mi SSE 16.1 mph 36.8 mph 0.10 in Rain Heavy Rain
4:53 PM 57.0 °F 53.1 °F 87% 29.13 in 0.8 mi SSE 13.8 mph 31.1 mph 0.13 in Rain Rain
5:00 PM 57.2 °F 53.6 °F 88% 29.12 in 1.5 mi SSE 16.1 mph 28.8 mph 0.02 in Rain Light Rain
5:08 PM 57.2 °F 53.6 °F 88% 29.12 in 1.2 mi South 12.7 mph 28.8 mph 0.04 in Rain Rain
5:35 PM 57.2 °F 53.6 °F 88% 29.08 in 0.8 mi SSE 15.0 mph 28.8 mph 0.16 in Rain Rain
5:53 PM 57.9 °F 54.0 °F 87% 29.06 in 1.2 mi SSE 16.1 mph 32.2 mph 0.28 in Rain Rain
6:05 PM 57.2 °F 53.6 °F 88% 29.04 in 1.5 mi South 10.4 mph 25.3 mph 0.03 in Rain Light Rain
6:10 PM 57.2 °F 53.6 °F 88% 29.04 in 0.8 mi South 10.4 mph 28.8 mph 0.05 in Rain Heavy Rain
6:28 PM 57.2 °F 53.6 °F 88% 29.10 in 1.2 mi SW 21.9 mph 40.3 mph 0.23 in Rain Light Rain
6:30 PM 57.2 °F 53.6 °F 88% 29.10 in 2.5 mi WSW 19.6 mph 31.1 mph 0.23 in Rain Light Rain
6:38 PM 57.2 °F 51.8 °F 82% 29.10 in 3.0 mi SW 16.1 mph 24.2 mph 0.24 in Rain Light Rain
6:53 PM 57.9 °F 52.0 °F 81% 29.11 in 4.0 mi WSW 10.4 mph 20.7 mph 0.24 in   Haze
7:53 PM 55.0 °F 46.9 °F 74% 29.16 in 3.0 mi WSW 23.0 mph 46.0 mph 0.00 in Rain Light Rain
8:53 PM 55.0 °F 45.0 °F 69% 29.20 in 8.0 mi WSW 20.7 mph 34.5 mph 0.00 in   Mostly Cloudy
9:53 PM 55.0 °F 44.1 °F 67% 29.25 in 8.0 mi SW 20.7 mph 31.1 mph N/A   Overcast
10:53 PM 55.9 °F 43.0 °F 62% 29.29 in 8.0 mi SW 20.7 mph 31.1 mph 0.00 in   Overcast
11:53 PM 55.9 °F 44.1 °F 64% 29.33 in 8.0 mi SW 16.1 mph 28.8 mph N/A   Overcast